Location: Alexandria
(38.8050°N, 77.0470°W)
Time: 18:25:49
(UTC-04:00)

Envisat - Pass Details

Date: 10 February 2018
Orbit: 764 x 766 km, 98.2° (Epoch: 21 May)

Event Time Altitude Azimuth Distance (km) Brightness Sun altitude
Exits shadow 19:03:19 16° 131° (SE) 1,934 4.7 -16.7°
Maximum altitude 19:06:56 38° 70° (ENE) 1,160 3.4 -17.4°
Drops below altitude 10° 19:11:36 10° 4° (N) 2,308 5.4 -18.3°
Sets 19:14:02 0° 356° (N) 3,239 6.3 -18.8°
